Location: Baia de Cri?
(46.1667°N, 22.7167°E)
Time: 08:59:46
(UTC+00:00)

Cosmos 2074 Rocket - Pass Details

Date: 15 January 2026
Orbit: 966 x 986 km, 82.9° (Epoch: 9 February)

Event Time Altitude Azimuth Distance (km) Brightness Sun altitude
Rises 03:57:01 0° 183° (S) 3,680 7.1 -22.1°
Reaches altitude 10° 03:59:31 10° 183° (S) 2,736 6.4 -21.7°
Maximum altitude 04:05:48 82° 96° (E) 1,001 4.1 -20.6°
Drops below altitude 10° 04:12:07 10° 10° (N) 2,750 6.4 -19.5°
Sets 04:14:39 0° 10° (N) 3,701 7.0 -19.1°
